Flag for Canada Weather past 2 weeks in Halton Hills, Ontario, Canada

Now
59 °F

Passing clouds.


Feels Like: 57 °F
Forecast: 50 / 67 °F
Wind: 9 mph from Northwest

Location: Toronto Pearson International Airport

Current Time: Jul 29, 2014 at 7:12:55 AM

Latest Report: Jul 29, 2014 at 6:00 AM


Visibility: 15 mi

Pressure: 29.90 "Hg

Humidity: 77%

Dew point: 52 °F

Location of Halton HillsLocation

Historic Weather in Halton Hills — Graph

°F

Halton Hills temperature yesterday

Maximum temperature yesterday: 70 °F (at 2:00 PM)
Minimum temperature yesterday: 59 °F (at 10:00 AM)
Average temperature yesterday: 64 °F

Past Weeks' High & Low Weather Summary

 TemperatureHumidityPressure
High86 °F (Jul 22, 7:00 PM)100% (Jul 19, 9:00 PM)30.24 "Hg (Jul 19, 9:00 PM)
Low52 °F (Jul 17, 5:00 AM)29% (Jul 18, 6:00 PM)29.60 "Hg (Jul 28, 3:52 AM)
Average68 °F67%29.95 "Hg
* Reported Jul 14 6:00 AM — Jul 29 6:00 AM, Halton Hills, Weather by CustomWeather, © 2014

Note: Actual official high and low records may vary slightly from our data, if they occured in-between our weather recording intervals... More about our weather records

Advertising

Halton Hills weather history for previous 24 hours

 ConditionsComfort  
Time TempWeatherWind HumidityBarometerVisibility
6:00 AM
Jul 29
59 °FPassing clouds.9 mph77%29.90 "Hg15 mi
5:00 AM59 °FPassing clouds.10 mph77%29.88 "Hg15 mi
4:00 AM57 °FPassing clouds.10 mph82%29.87 "Hg15 mi
3:00 AM55 °FPassing clouds.10 mph88%29.88 "Hg15 mi
2:00 AM57 °FPassing clouds.13 mph77%29.88 "Hg15 mi
1:00 AM57 °FPassing clouds.9 mph77%29.88 "Hg15 mi
12:00 AM59 °FPassing clouds.12 mph72%29.88 "Hg15 mi
11:00 PM
Jul 28
59 °FPassing clouds.10 mph72%29.88 "Hg15 mi
10:00 PM61 °FPassing clouds.12 mph63%29.88 "Hg15 mi
9:00 PM61 °FScattered clouds.15 mph63%29.86 "Hg15 mi
8:00 PM63 °FPartly sunny.20 mph59%29.86 "Hg15 mi
7:00 PM64 °FPartly sunny.18 mph60%29.84 "Hg15 mi
6:00 PM64 °FPartly sunny.20 mph56%29.83 "Hg15 mi
4:00 PM68 °FPartly sunny.21 mph56%29.79 "Hg15 mi
3:00 PM70 °FBroken clouds.18 mph57%29.77 "Hg15 mi
2:00 PM70 °FPartly sunny.18 mph57%29.76 "Hg15 mi
1:00 PM68 °FPartly sunny.20 mph60%29.75 "Hg15 mi
12:00 PM63 °FPartly sunny.18 mph73%29.75 "Hg15 mi
11:00 AM61 °FMore clouds than sun.16 mph83%29.74 "Hg15 mi
10:00 AM59 °FLight rain. Mostly cloudy.16 mph88%29.72 "Hg15 mi
9:00 AM61 °FLight rain. Mostly cloudy.22 mph88%29.70 "Hg15 mi
8:00 AM61 °FLight rain. Mostly cloudy.15 mph88%29.67 "Hg12 mi
7:00 AM63 °FLight rain. Mostly cloudy.13 mph88%29.65 "Hg8 mi
Weather by CustomWeather, © 2014

See weather overviewHow to use our weather pages